User: anonymous   Login
Location: Unspecified
(64.9000°N, 0.0000°E)
Time: 19:13:28
(UTC+00:00)
Language:

deb Explorer IX - Orbit

View from above orbital plane
View from above orbital plane
View from above satellite
View from above satellite

Ground track
Ground track

The orbit data is extracted from the following two-line orbital elements,

1    85U 61004C   19165.81025306  .00001323  00000-0  29153-3 0  9993
2    85  38.7762  99.9648 0401048 205.3107 152.7492 14.19774549878653
Epoch (UTC): 14 June 2019 19:26:45
Eccentricity: 0.0401048
inclination: 38.7762°
perigee height: 537 km
apogee height: 1115 km
right ascension of ascending node: 99.9648°
argument of perigee: 205.3107°
revolutions per day: 14.19774549
mean anomaly at epoch: 152.7492°
orbit number at epoch: 87865

The dashed part of the orbit path shows where the satellite is in the earth's shadow,  

DLR